TIME,DELAY(SENSOR),PRES,OXYGEN,RAWTEMP,T(OPTODE),TCPHASE,FLUOR,BETA(BETA700),BETA(BETA412),BETA(BETA440),CDOM,C(CSC),ED(ED411.90),ED(ED443.80),ED(ED489.40),ED(ED554.70),LU(LU412.20),LU(LU443.80),LU(LU489.40),LU(LU555.00),COMP,TILTX,TILTY,CHECK
1373407505,5803,862.1500244140625000,144.0852050781250000,423.3432006835937500,9.8899717330932620,40.6315498352050800,52,102,82,77,73,9979,2146960310,2147518418,2147288612,2147497462,2147087899,2146930432,2147698514,2147120539,2082,-1,8,41686
1373411101,5809,963.8400268554688000,162.8433990478515600,487.2054138183594000,7.9258980751037600,40.2060890197753900,52,106,83,78,75,9971,2146959881,2147519908,2147294646,2147509805,2147086939,2146920832,2147711625,2147120274,2712,-1,8,33154
1373414701,5807,976.2299804687500000,140.2151947021484400,499.0111083984375000,7.5601692199707030,42.2070884704589840,52,102,84,76,75,9975,2146962358,2147516598,2147298432,2147511963,2147086281,2146918491,2147714038,2147122706,3328,-1,8,16833
1373418301,5807,979.8800048828125000,143.3231048583984400,500.7542114257812500,7.5060920715332030,41.9769706726074200,53,102,82,76,74,9975,2146960466,2147517632,2147293705,2147515026,2147087350,2146920457,2147714148,2147123602,717,-1,8,47084
1373421901,5805,983.6300048828125000,176.0050964355468800,502.8172912597656000,7.4420628547668460,39.5232391357421900,53,104,82,78,76,9974,2146962075,2147516178,2147298834,2147510674,2147089344,2146918272,2147717613,2147121490,871,-1,8,63746
1373425501,5808,987.2000122070312000,175.1667022705078000,503.5292968750000000,7.4199581146240230,39.5941810607910160,53,102,81,76,76,9973,2146964324,2147520082,2147297828,2147514450,2147089042,2146923236,2147714806,2147120667,927,-1,8,41938
1373429101,5803,989.0800170898438000,181.4660034179687500,504.6946105957031000,7.3837728500366210,39.1805381774902340,52,106,83,79,78,9972,2146959350,2147519908,2147297078,2147513545,2147091538,2146917312,2147715812,2147120731,1220,-1,8,2669
1373432701,5803,994.2199707031250000,178.8697967529297000,504.2510070800781000,7.3975501060485840,39.3496513366699200,53,104,82,77,79,9966,2146963081,2147518070,2147297133,2147508086,2147087853,2146915291,2147712493,2147118116,1088,-1,8,12495
1373436301,5804,995.4199829101562000,155.1380004882812500,503.3316040039062500,7.4260959625244140,41.0700683593750000,53,109,81,76,78,9961,2146962523,2147521398,2147300516,2147511844,2147089499,2146924178,2147716050,2147120731,375,-1,8,8380
1373439901,5807,995.9400024414062000,135.8670959472656200,503.6290893554687500,7.4168620109558105,42.6570091247558600,52,105,84,76,80,9962,2146960073,2147517403,2147296813,2147513801,2147086646,2146929033,2147715666,2147117897,250,-1,8,425
1373443501,5806,994.5300292968750000,145.5068054199218800,504.2633056640625000,7.3971681594848630,41.8565406799316400,52,101,82,76,77,9962,2146960512,2147518902,2147295067,2147514578,2147087552,2146919478,2147719405,2147122038,403,-1,8,37474
1373447101,5806,999.1300048828125000,146.9582977294922000,504.1866149902344000,7.3995499610900880,41.7376098632812500,53,103,83,76,78,9957,2146960100,2147519131,2147299410,2147511314,2147086555,2146917430,2147718281,2147123090,302,-1,8,63759
1373450701,5804,996.5900268554688000,181.7790069580078000,504.2081909179687500,7.3988790512084960,39.1497306823730500,52,105,83,77,77,9961,2146964434,2147516425,2147296173,2147512384,2147085705,2146919771,2147713453,2147122642,2848,-1,8,61043
1373454301,5803,996.4500122070312000,161.2247009277343800,504.3971862792969000,7.3930082321166990,40.6221389770507800,53,104,84,78,78,9959,2146961024,2147516342,2147295268,2147512137,2147090742,2146921243,2147715620,2147121700,857,-1,8,36661
1373457901,5806,993.8800048828125000,161.6546936035156200,506.0375976562500000,7.3420610427856445,40.6182289123535160,52,105,82,76,79,9957,2146964845,2147518299,2147295670,2147511808,2147087396,2146918390,2147717659,2147121956,1421,-1,8,43874
1373461501,5807,990.2500000000000000,187.1782989501953000,506.8555908203125000,7.3166470527648930,38.8366813659668000,52,104,83,76,78,9958,2146961609,2147515126,2147298624,2147510134,2147087186,2146919058,2147716864,2147122386,507,-1,8,2935
1373465101,5807,994.0100097656250000,191.7790985107422000,507.3266906738281000,7.3020091056823730,38.5448303222656250,53,104,109,76,78,9958,2146957705,2147518774,2147296978,2147510884,2147087442,2146918820,2147721956,2147120118,920,-1,8,40598
1373468701,5804,992.7100219726562000,187.2272949218750000,508.6690979003906000,7.2602910995483400,38.8654708862304700,52,106,84,77,78,9956,2146963456,2147516324,2147294262,2147512210,2147086390,2146921718,2147719360,2147123721,1081,0,8,6345
1373472301,5804,992.8400268554688000,186.9418029785156200,508.5433044433594000,7.2642011642456055,38.8815498352050800,52,102,84,76,79,9956,2146967259,2147517339,2147296804,2147514066,2147086829,2146917376,2147716992,2147122880,3149,0,8,14868
1373475901,5805,997.3499755859375000,183.0559997558593800,507.6112976074219000,7.2931637763977050,39.1240997314453100,53,103,83,77,77,9954,2146963885,2147521728,2147297097,2147511204,2147086518,2146918445,2147715126,2147118893,539,-1,8,2152
1373479501,5806,998.0200195312500000,177.4947967529297000,506.6448974609375000,7.3231949806213380,39.4868507385253900,52,103,84,75,78,9954,2146963382,2147518701,2147298404,2147514093,2147087341,2146923428,2147716278,2147121956,154,0,8,20516
1373483101,5806,999.4400024414062000,186.2657012939453000,506.3617858886719000,7.3319878578186035,38.8878593444824200,53,105,82,77,78,9955,2146964105,2147520630,2147295972,2147513627,2147085302,2146917860,2147720082,2147121947,314,-1,8,58758
1373486701,5808,1005.0100097656250000,186.5289001464843800,505.4223937988281000,7.3611688613891600,38.8536491394043000,52,103,82,75,77,9956,2146968960,2147517138,2147292123,2147509366,2147085385,2146922258,2147719396,2147122779,396,-1,8,28644
1373490301,5807,1002.9699707031250000,181.9389953613281200,505.0022888183594000,7.3742198944091800,39.1540107727050800,53,104,84,77,78,9955,2146961508,2147518244,2147299904,2147511177,2147088822,2146918153,2147713252,2147120685,299,-1,8,52412
1373493901,5803,1002.6199951171875000,184.1885986328125000,505.0461120605469000,7.3728599548339840,39.0031814575195300,52,104,83,77,79,9953,2146961060,2147518646,2147296832,2147509622,2147088054,2146917440,2147718336,2147120018,619,-1,8,8946
1373497501,5807,998.2999877929688000,175.3013000488281200,506.6297912597656000,7.3236618041992190,39.6390991210937500,53,104,82,76,78,9955,2146965860,2147517760,2147298221,2147510363,2147087506,2146918976,2147714678,2147119670,683,-1,8,63676
1373501101,5805,1000.1099853515625000,177.3735961914062500,507.8888854980469000,7.2845392227172850,39.5160408020019500,53,143,84,76,78,9952,2146963218,2147518710,2147296155,2147510720,2147087314,2146917211,2147715666,2147120429,467,-1,8,55711
1373504701,5804,997.5300292968750000,190.7891998291015600,508.0512084960937500,7.2794938087463380,38.6215515136718750,53,103,83,76,79,9953,2146967040,2147518802,2147298230,2147514587,2147087917,2146920512,2147718619,2147123995,2860,-1,8,63515
1373508301,5807,998.1099853515625000,190.4488067626953000,508.1734924316406000,7.2756938934326170,38.6461982727050800,53,105,82,76,77,9955,2146963318,2147518372,2147302317,2147513536,2147084900,2146918354,2147717330,2147121042,3053,-1,8,39780
1373511901,5804,998.3099975585938000,185.5216979980468800,509.0769958496094000,7.2476100921630860,38.9849281311035160,53,106,83,76,77,9951,2146962688,2147519424,2147297417,2147513728,2147086372,2146920118,2147717513,2147123638,3250,-1,8,20828
1373515501,5804,995.5300292968750000,191.2220001220703000,508.4677124023437500,7.2665481567382810,38.6015014648437500,53,104,81,77,79,9951,2146965129,2147519360,2147296923,2147511981,2147085988,2146921590,2147717357,2147122852,278,-1,8,47786
1373519101,5810,996.6900024414062000,188.6544952392578000,509.6687011718750000,7.2292170524597170,38.7890014648437500,53,103,83,76,78,9953,2146963785,2147521115,2147295186,2147513773,2147084818,2146916937,2147716406,2147120512,83,0,8,31913
1373522701,5808,997.3099975585938000,191.5458984375000000,509.5101013183594000,7.2341461181640625,38.5980796813964840,52,104,82,77,78,9951,2146960320,2147519497,2147299547,2147513590,2147087734,2146921947,2147715556,2147121088,306,-1,8,63163
1373526301,5808,1000.4500122070312000,189.1309967041015600,508.5392150878906000,7.2643260955810550,38.7380409240722660,53,103,85,75,78,9948,2146962331,2147518976,2147298779,2147512000,2147086646,2146916525,2147715776,2147126198,377,-1,8,44944
1373529901,5806,1003.3699951171875000,182.5433959960937500,507.5401000976562500,7.2953782081604000,39.1577796936035160,52,106,83,77,78,9949,2146963666,2147521792,2147295186,2147513243,2147086646,2146918482,2147717714,2147121828,3413,-1,8,64783
1373533501,5804,1004.6900024414062000,192.0715942382812500,505.9818115234375000,7.3437938690185550,38.5022201538085940,52,103,83,76,78,9949,2146966016,2147517558,2147303131,2147511899,2147087963,2146918985,2147718592,2147120009,3394,-1,8,36054
1373537101,5805,1002.8400268554688000,190.7088012695312500,506.9446105957031000,7.3138809204101560,38.6071586608886700,53,105,82,86,78,9946,2146964781,2147521014,2147298752,2147513033,2147083977,2146910610,2147714276,2147120310,3341,-1,8,7570
1373540701,5807,999.7999877929688000,172.3775024414062500,509.0965881347656000,7.2470021247863770,39.8878517150878900,53,106,83,77,78,9949,2146965604,2147518125,2147296192,2147512694,2147085796,2146916626,2147719076,2147117458,3588,0,8,2823
1373544301,5807,995.5999755859375000,172.0525970458984400,509.3175048828125000,7.2401351928710940,39.9147796630859400,53,107,83,77,77,9948,2146963181,2147519643,2147300132,2147512356,2147083776,2146917174,2147714148,2147122020,2799,-1,8,28942
1373547901,5807,997.1699829101562000,192.4264068603515600,510.3048095703125000,7.2094388008117680,38.5555686950683600,53,103,83,77,78,9949,2146966116,2147518921,2147295689,2147511954,2147086390,2146916918,2147718912,2147124406,955,-1,8,36873
1373551255,5803,999.6500244140625000,191.8547058105468800,509.6336059570312500,7.2303090095520020,38.5804100036621100,53,103,83,76,79,9996,2146964717,2147520310,2147298038,2147514276,2147085138,2146921938,2147720612,2147124013,3233,-1,8,63984
